[keps] orb09064.amsat
Ray Hoad
r.hoad at att.net
Thu Mar 5 19:50:17 PST 2009
SB KEPS @ AMSAT $ORB09064.O
Orbital Elements 09064.OSCAR
HR AMSAT ORBITAL ELEMENTS FOR OSCAR SATELLITES
FROM WA5QGD FORT WORTH,TX March 5, 2009
Send Subscribe/unsubscribe to KEPS at
http://www.amsat.org/mailman/listinfo/keps
BID: ORB09064.O
TO ALL RADIO AMATEURS BT
Satellite: AO-07
Catalog number: 07530
Epoch time: 09064.50008816
Element set: 418
Inclination: 101.4386 deg
RA of node: 092.9458 deg
Eccentricity: 0.0012071
Arg of perigee: 111.3895 deg
Mean anomaly: 248.8468 deg
Mean motion: 12.53575438 rev/day
Decay rate: -2.7e-07 rev/day^2
Epoch rev: 56972
Checksum: 314
Satellite: AO-10
Catalog number: 14129
Epoch time: 09063.34409699
Element set: 629
Inclination: 025.9805 deg
RA of node: 168.5651 deg
Eccentricity: 0.5977441
Arg of perigee: 202.9830 deg
Mean anomaly: 112.1219 deg
Mean motion: 02.05871203 rev/day
Decay rate: -3.40e-06 rev/day^2
Epoch rev: 19346
Checksum: 305
Satellite: UO-11
Catalog number: 14781
Epoch time: 09063.67106061
Element set: 902
Inclination: 098.1214 deg
RA of node: 107.1210 deg
Eccentricity: 0.0008371
Arg of perigee: 319.7772 deg
Mean anomaly: 040.2832 deg
Mean motion: 14.79696307 rev/day
Decay rate: -1.34e-06 rev/day^2
Epoch rev: 34237
Checksum: 280
Satellite: RS-15
Catalog number: 23439
Epoch time: 09063.94457153
Element set: 0211
Inclination: 064.8138 deg
RA of node: 073.3859 deg
Eccentricity: 0.0146088
Arg of perigee: 071.8556 deg
Mean anomaly: 289.8214 deg
Mean motion: 11.27553205 rev/day
Decay rate: -3.9e-07 rev/day^2
Epoch rev: 58436
Checksum: 326
Satellite: FO-29
Catalog number: 24278
Epoch time: 09063.72935825
Element set: 0998
Inclination: 098.5654 deg
RA of node: 311.7231 deg
Eccentricity: 0.0349795
Arg of perigee: 261.0130 deg
Mean anomaly: 095.1267 deg
Mean motion: 13.52942584 rev/day
Decay rate: -4.9e-07 rev/day^2
Epoch rev: 61962
Checksum: 346
Satellite: SO-33
Catalog number: 25509
Epoch time: 09063.83991548
Element set: 0402
Inclination: 031.4303 deg
RA of node: 282.5327 deg
Eccentricity: 0.0354335
Arg of perigee: 146.2558 deg
Mean anomaly: 216.1166 deg
Mean motion: 14.28243419 rev/day
Decay rate: 1.45e-06 rev/day^2
Epoch rev: 54090
Checksum: 294
Satellite: AO-40
Catalog number: 26609
Epoch time: 09064.39775925
Element set: 198
Inclination: 008.8446 deg
RA of node: 029.8585 deg
Eccentricity: 0.7953643
Arg of perigee: 181.6962 deg
Mean anomaly: 171.4779 deg
Mean motion: 01.25583845 rev/day
Decay rate: -2.00e-06 rev/day^2
Epoch rev: 3832
Checksum: 354
Satellite: RS-22
Catalog number: 27939
Epoch time: 09064.46741965
Element set: 731
Inclination: 097.9604 deg
RA of node: 303.0219 deg
Eccentricity: 0.0014647
Arg of perigee: 098.9150 deg
Mean anomaly: 261.3682 deg
Mean motion: 14.63298458 rev/day
Decay rate: 6.4e-07 rev/day^2
Epoch rev: 29040
Checksum: 327
Satellite: VO-52
Catalog number: 28650
Epoch time: 09064.24501409
Element set: 170
Inclination: 097.7536 deg
RA of node: 129.2066 deg
Eccentricity: 0.0027469
Arg of perigee: 011.5126 deg
Mean anomaly: 348.6665 deg
Mean motion: 14.81557050 rev/day
Decay rate: -2.68e-06 rev/day^2
Epoch rev: 20725
Checksum: 304
Satellite: PO-63
Catalog number: 29712
Epoch time: 09064.67889543
Element set: 287
Inclination: 097.8413 deg
RA of node: 123.5087 deg
Eccentricity: 0.0013065
Arg of perigee: 250.8005 deg
Mean anomaly: 109.1783 deg
Mean motion: 14.80460098 rev/day
Decay rate: 4.40e-06 rev/day^2
Epoch rev: 11615
Checksum: 310
/EX
SB KEPS @ AMSAT $ORB09064.D
Orbital Elements 09064.MICROS
HR AMSAT ORBITAL ELEMENTS FOR THE MICROSATS
FROM WA5QGD FORT WORTH,TX March 5, 2009
Send Subscribe/unsubscribe to KEPS at
http://www.amsat.org/mailman/listinfo/keps
BID: ORB09064.D
TO ALL RADIO AMATEURS BT
Satellite: AO-16
Catalog number: 20439
Epoch time: 09063.66149009
Element set: 548
Inclination: 098.2671 deg
RA of node: 036.8853 deg
Eccentricity: 0.0011723
Arg of perigee: 118.8667 deg
Mean anomaly: 241.3704 deg
Mean motion: 14.31817340 rev/day
Decay rate: 1.1e-07 rev/day^2
Epoch rev: 99819
Checksum: 314
Satellite: LO-19
Catalog number: 20442
Epoch time: 09063.45614326
Element set: 0472
Inclination: 098.2317 deg
RA of node: 044.3503 deg
Eccentricity: 0.0012788
Arg of perigee: 117.1249 deg
Mean anomaly: 243.1228 deg
Mean motion: 14.32053599 rev/day
Decay rate: -6.2e-07 rev/day^2
Epoch rev: 99832
Checksum: 298
Satellite: AO-27
Catalog number: 22825
Epoch time: 09064.46644063
Element set: 191
Inclination: 098.4234 deg
RA of node: 021.2212 deg
Eccentricity: 0.0007931
Arg of perigee: 205.5585 deg
Mean anomaly: 154.5221 deg
Mean motion: 14.29260013 rev/day
Decay rate: 4.3e-07 rev/day^2
Epoch rev: 80509
Checksum: 269
Satellite: IO-26
Catalog number: 22826
Epoch time: 09064.40487680
Element set: 911
Inclination: 098.4173 deg
RA of node: 021.9555 deg
Eccentricity: 0.0008472
Arg of perigee: 201.5738 deg
Mean anomaly: 158.5093 deg
Mean motion: 14.29510714 rev/day
Decay rate: -6.0e-08 rev/day^2
Epoch rev: 80518
Checksum: 307
Satellite: GO-32
Catalog number: 25397
Epoch time: 09064.58152485
Element set: 836
Inclination: 098.3367 deg
RA of node: 092.4260 deg
Eccentricity: 0.0001369
Arg of perigee: 154.5657 deg
Mean anomaly: 205.5595 deg
Mean motion: 14.23155244 rev/day
Decay rate: -1.07e-06 rev/day^2
Epoch rev: 55339
Checksum: 322
Satellite: NO-44
Catalog number: 26931
Epoch time: 09064.31978477
Element set: 113
Inclination: 067.0543 deg
RA of node: 331.9346 deg
Eccentricity: 0.0005211
Arg of perigee: 264.2429 deg
Mean anomaly: 095.8086 deg
Mean motion: 14.29550403 rev/day
Decay rate: 3.22e-06 rev/day^2
Epoch rev: 38773
Checksum: 305
Satellite: SO-50
Catalog number: 27607
Epoch time: 09064.26989768
Element set: 829
Inclination: 064.5603 deg
RA of node: 340.7030 deg
Eccentricity: 0.0077548
Arg of perigee: 228.0419 deg
Mean anomaly: 131.4053 deg
Mean motion: 14.71417413 rev/day
Decay rate: -1.20e-06 rev/day^2
Epoch rev: 33338
Checksum: 302
Satellite: CO-55
Catalog number: 27844
Epoch time: 09063.54327045
Element set: 525
Inclination: 098.7157 deg
RA of node: 074.1766 deg
Eccentricity: 0.0010719
Arg of perigee: 085.0207 deg
Mean anomaly: 275.2198 deg
Mean motion: 14.20624869 rev/day
Decay rate: 1.9e-07 rev/day^2
Epoch rev: 29440
Checksum: 319
Satellite: CO-57
Catalog number: 27848
Epoch time: 09063.92892688
Element set: 0473
Inclination: 098.7169 deg
RA of node: 073.6205 deg
Eccentricity: 0.0010598
Arg of perigee: 087.0641 deg
Mean anomaly: 273.1752 deg
Mean motion: 14.20428687 rev/day
Decay rate: -4.0e-08 rev/day^2
Epoch rev: 29442
Checksum: 344
Satellite: AO-51
Catalog number: 28375
Epoch time: 09063.57486983
Element set: 0332
Inclination: 098.0564 deg
RA of node: 079.2599 deg
Eccentricity: 0.0084987
Arg of perigee: 082.3484 deg
Mean anomaly: 278.7347 deg
Mean motion: 14.40634594 rev/day
Decay rate: 4.0e-08 rev/day^2
Epoch rev: 24589
Checksum: 367
Satellite: CO-56
Catalog number: 28941
Epoch time: 09064.73302674
Element set: 874
Inclination: 098.1295 deg
RA of node: 220.7430 deg
Eccentricity: 0.0114847
Arg of perigee: 160.7615 deg
Mean anomaly: 199.8104 deg
Mean motion: 15.73428317 rev/day
Decay rate: 6.8254e-04 rev/day^2
Epoch rev: 17092
Checksum: 333
Satellite: CP3
Catalog number: 31128
Epoch time: 09063.82195395
Element set: 571
Inclination: 098.0033 deg
RA of node: 121.7462 deg
Eccentricity: 0.0101798
Arg of perigee: 248.2559 deg
Mean anomaly: 110.7766 deg
Mean motion: 14.52022339 rev/day
Decay rate: -4.8e-07 rev/day^2
Epoch rev: 9975
Checksum: 310
Satellite: CP4
Catalog number: 31132
Epoch time: 09064.38740496
Element set: 549
Inclination: 098.0080 deg
RA of node: 125.7641 deg
Eccentricity: 0.0084595
Arg of perigee: 236.2091 deg
Mean anomaly: 123.1028 deg
Mean motion: 14.55186471 rev/day
Decay rate: -1.8e-07 rev/day^2
Epoch rev: 9993
Checksum: 306
Satellite: CO-65
Catalog number: 32785
Epoch time: 09064.78649163
Element set: 306
Inclination: 097.9591 deg
RA of node: 129.5533 deg
Eccentricity: 0.0015318
Arg of perigee: 011.9525 deg
Mean anomaly: 348.2048 deg
Mean motion: 14.81452786 rev/day
Decay rate: -2.03e-06 rev/day^2
Epoch rev: 4613
Checksum: 322
/EX
SB KEPS @ AMSAT $ORB09064.W
Orbital Elements 09064.WEATHER
HR AMSAT ORBITAL ELEMENTS FOR WEATHER SATELLITES
FROM WA5QGD FORT WORTH,TX March 5, 2009
Send Subscribe/unsubscribe to KEPS at
http://www.amsat.org/mailman/listinfo/keps
BID: ORB09064.W
TO ALL RADIO AMATEURS BT
Satellite: NOAA-10
Catalog number: 16969
Epoch time: 09064.13177903
Element set: 524
Inclination: 098.7027 deg
RA of node: 091.2969 deg
Eccentricity: 0.0012791
Arg of perigee: 137.6782 deg
Mean anomaly: 222.5384 deg
Mean motion: 14.27380637 rev/day
Decay rate: -1.13e-06 rev/day^2
Epoch rev: 16866
Checksum: 326
Satellite: NOAA-11
Catalog number: 19531
Epoch time: 09064.32519148
Element set: 536
Inclination: 098.7831 deg
RA of node: 155.8865 deg
Eccentricity: 0.0012253
Arg of perigee: 046.8436 deg
Mean anomaly: 313.3763 deg
Mean motion: 14.14888931 rev/day
Decay rate: -1.94e-06 rev/day^2
Epoch rev: 5483
Checksum: 323
Satellite: NOAA-12
Catalog number: 21263
Epoch time: 09064.65205737
Element set: 30
Inclination: 098.7742 deg
RA of node: 072.6585 deg
Eccentricity: 0.0013373
Arg of perigee: 085.7944 deg
Mean anomaly: 274.4762 deg
Mean motion: 14.25568606 rev/day
Decay rate: 7.0e-08 rev/day^2
Epoch rev: 92564
Checksum: 318
Satellite: MET-3/5
Catalog number: 21655
Epoch time: 09063.91963401
Element set: 0568
Inclination: 082.5525 deg
RA of node: 280.1689 deg
Eccentricity: 0.0014677
Arg of perigee: 081.1068 deg
Mean anomaly: 279.1715 deg
Mean motion: 13.17018967 rev/day
Decay rate: 5.1e-07 rev/day^2
Epoch rev: 84390
Checksum: 323
Satellite: MET-2/21
Catalog number: 22782
Epoch time: 09063.82991771
Element set: 395
Inclination: 082.5435 deg
RA of node: 264.7928 deg
Eccentricity: 0.0021062
Arg of perigee: 280.7113 deg
Mean anomaly: 079.1671 deg
Mean motion: 13.83633552 rev/day
Decay rate: -4.0e-08 rev/day^2
Epoch rev: 78317
Checksum: 316
